Flag for India Weather past 2 weeks in Chittorgarh, Rajasthan, India

Now
100 °F

Duststorm.


Feels Like: 100 °F
Forecast: 86 / 108 °F
Wind: 15 mph from West

Location: Jaipur / Sanganer

Current Time: May 24, 2015 at 11:04:16 AM

Latest Report: May 24, 2015 at 10:00 AM


Visibility: 2 mi

Pressure: 29.62 "Hg

Humidity: 24%

Dew point: 57 °F

Location of ChittorgarhLocation

Historic Weather in Chittorgarh — Graph

°F

Chittorgarh temperature yesterday

Maximum temperature yesterday: 111 °F (at 3:00 PM)
Minimum temperature yesterday: 88 °F (at 4:30 AM)
Average temperature yesterday: 100 °F

Past Weeks' High & Low Weather Summary

 TemperatureHumidityPressure
High111 °F (May 18, 3:00 PM)62% (May 11, 10:00 PM)29.89 "Hg (May 11, 10:00 PM)
Low77 °F (May 15, 5:00 AM)5% (May 9, 2:00 PM)29.53 "Hg (May 23, 3:00 PM)
Average93 °F29%29.71 "Hg
* Reported May 9 9:00 AM — May 24 9:00 AM, Chittorgarh, Weather by CustomWeather, © 2015

Note: Actual official high and low records may vary slightly from our data, if they occured in-between our weather recording intervals... More about our weather records

Advertising

Chittorgarh weather history for previous 24 hours

 ConditionsComfort  
Time TempWeatherWind HumidityBarometerVisibility
9:00 AM
Sun, May 24
97 °FDuststorm.13 mph30%29.62 "Hg2 mi
8:00 AM93 °FDuststorm.15 mph36%29.62 "Hg2 mi
6:00 AM90 °FHaze.6 mph36%29.56 "Hg2 mi
5:00 AM90 °FHaze.6 mph36%29.56 "Hg2 mi
3:00 AM93 °FHaze.8 mph30%29.53 "Hg2 mi
2:00 AM93 °FHaze.7 mph28%29.53 "Hg2 mi
1:00 AM95 °FHaze.7 mph25%29.56 "Hg2 mi
11:00 PM
Sat, May 23
97 °FHaze.5 mph17%29.59 "Hg2 mi
10:00 PM97 °FHaze.5 mph16%29.56 "Hg2 mi
9:00 PM99 °FHaze.5 mph15%29.56 "Hg2 mi
8:00 PM102 °FHaze.6 mph11%29.53 "Hg2 mi
7:00 PM106 °FHaze.13 mph9%29.53 "Hg2 mi
6:00 PM108 °FScattered clouds.14 mph9%29.53 "Hg2 mi
5:00 PM109 °FScattered clouds.17 mph7%29.53 "Hg2 mi
4:00 PM109 °FHaze.16 mph6%29.53 "Hg2 mi
3:00 PM111 °FHaze.16 mph7%29.53 "Hg2 mi
2:00 PM109 °FHaze.18 mph7%29.56 "Hg2 mi
1:00 PM108 °FHaze.14 mph12%29.59 "Hg2 mi
12:00 PM106 °FHaze.14 mph15%29.62 "Hg2 mi
11:00 AM104 °FHaze.16 mph19%29.62 "Hg2 mi
Weather by CustomWeather, © 2015

See weather overviewHow to use our weather pages